This demonstration page uses our WeatherBlox Daily Observations layout. Learn more.

Left ArrowRight Arrow

36.17497, -115.13722

Hourly Observations for March 13, 2015

Temp ( °F °C ) Dew Point ( °F °C ) Humidity (%) Winds ( mph kmh ) Pressure ( in mb ) Visibility ( mi km ) Precip ( " mm )
12:53 am 00:53 Clear 66 18.9 30 -1.1 26 26 N 10 17 30.18 1022 10 16 N/A
1:53 am 01:53 Clear 66 18.9 27 -2.8 23 23 NNE 13 20 30.19 1023 10 16 N/A
2:53 am 02:53 Clear 64 17.8 30 -1.1 28 28 N 10 17 30.19 1023 10 16 N/A
3:53 am 03:53 Clear 62 16.7 30 -1.1 30 30 N 15 24 30.19 1022 10 16 N/A
4:53 am 04:53 Clear 62 16.7 29 -1.7 29 29 N 13 20 30.19 1023 10 16 N/A
5:53 am 05:53 Clear 61 16.1 29 -1.7 30 30 NNW 14 22 30.22 1023 10 16 N/A
6:53 am 06:53 Clear 60 15.6 29 -1.7 31 31 NNW 12 19 30.22 1023 10 16 N/A
7:53 am 07:53 Sunny 63 17.2 29 -1.7 28 28 NE 8 13 30.24 1024 10 16 N/A
8:53 am 08:53 Sunny 66 18.9 29 -1.7 25 25 NNW 8 13 30.26 1025 10 16 N/A
9:53 am 09:53 Sunny 70 21.1 29 -1.7 22 22 NNE 9 15 30.25 1025 10 16 N/A
10:53 am 10:53 Sunny 72 22.2 28 -2.2 19 19 VRB 5 7 30.24 1024 10 16 N/A
11:53 am 11:53 Sunny 74 23.3 28 -2.2 18 18 NE 9 15 30.22 1023 10 16 N/A
12:53 pm 12:53 Sunny 76 24.4 27 -2.8 16 16 E 14 22 30.20 1023 10 16 N/A
1:53 pm 13:53 Sunny 77 25 24 -4.4 14 14 NE 14 22 30.16 1021 10 16 N/A
2:53 pm 14:53 Sunny 78 25.6 23 -5 13 13 E 9 15 30.14 1021 10 16 N/A
3:53 pm 15:53 Sunny 79 26.1 20 -6.7 11 11 ENE 15 24 30.12 1020 10 16 N/A
4:53 pm 16:53 Sunny 79 26.1 17 -8.3 10 10 E 9 15 30.10 1019 10 16 N/A
5:53 pm 17:53 Sunny 78 25.6 21 -6.1 12 12 NE 13 20 30.11 1020 10 16 N/A
6:53 pm 18:53 Clear 75 23.9 22 -5.6 14 14 ENE 8 13 30.13 1020 10 16 N/A
7:53 pm 19:53 Clear 73 22.8 24 -4.4 16 16 NE 5 7 30.14 1021 10 16 N/A
8:53 pm 20:53 Clear 68 20 26 -3.3 21 21 NW 7 11 30.16 1021 10 16 N/A
9:53 pm 21:53 Clear 67 19.4 28 -2.2 23 23 NNW 8 13 30.17 1022 10 16 N/A
10:53 pm 22:53 Clear 67 19.4 26 -3.3 21 21 NNW 9 15 30.17 1022 10 16 N/A
11:53 pm 23:53 Clear 64 17.8 28 -2.2 26 26 N N/A 30.18 1022 10 16 N/A

Powered by AerisWeather